#timestamp,LO_Frequency,Hit,StdDev 
1512277215.3,286046997.3,N
1512277235.2,286046996.9,N
1512277255.9,286046997.1,N
1512277275.7,286046997.4,N
1512277295.6,286046997.2,N
1512277315.4,286046999.6,N
1512277335.2,286046999.9,N
1512277355.1,286046999.1,N
1512277356.0,286046999.1,N
1512277375.8,286047001.0,N
1512277395.6,286046996.9,N
1512277415.5,286046998.5,N
1512277435.3,286047001.6,N
1512277455.1,286047003.6,N
1512277475.8,286046999.7,N
1512277495.7,286046999.8,N
1512277515.5,286047001.9,N
1512277535.3,286047003.9,N
1512277555.2,286047012.3,Y
1512277575.0,286047007.8,P
1512277575.9,286047007.8,N
1512277595.7,286047009.1,N
1512277615.6,286047006.2,N
1512277635.4,286047010.8,Y
1512277655.2,286047003.2,P
1512277675.1,286047006.2,P
1512277676.0,286047006.2,P
1512277695.8,286047008.4,Y
1512277715.7,286047004.1,P
1512277735.5,286047005.0,P
1512277755.3,286047010.6,P
1512277775.2,286047010.8,Y
1512277795.9,286047006.0,P
1512277815.7,286047008.5,P
1512277835.5,286047010.3,P
1512277855.4,286047008.4,Y
1512277875.2,286047004.8,P
1512277895.0,286047011.8,P
1512277896.0,286047011.8,P
1512277915.8,286047010.6,Y
1512277935.6,286046997.2,P
1512277955.5,286047000.9,N
1512277975.3,286047002.7,N
1512277995.1,286046999.2,N
1512278015.8,286046995.4,N
1512278035.7,286046996.2,N
1512278055.5,286046994.6,N
1512278075.3,286046990.2,N
1512278095.2,286046994.3,N
1512278115.9,286046994.3,N
1512278135.7,286046995.9,N
1512278155.6,286046989.2,N
1512278175.4,286046986.9,N
1512278195.2,286046986.0,N
1512278215.0,286046985.1,N
1512278216.0,286046985.1,N
1512278235.8,286046983.4,N
1512278255.6,286046983.3,N
1512278275.4,286046983.5,N
1512278295.3,286046983.0,N
1512278315.1,286046985.0,N
1512278335.8,286046988.1,N
1512278355.7,286046987.8,N
1512278375.5,286046983.7,N
1512278395.3,286046982.8,N
1512278415.2,286046983.6,N
1512278435.9,286046983.9,N
1512278455.7,286046992.0,N
1512278475.6,286046992.1,N
1512278495.4,286046988.6,N
1512278515.2,286046991.0,N
1512278535.0,286046990.1,N
1512278536.0,286046990.1,N
1512278555.8,286046994.7,N
1512278575.6,286046990.6,N
1512278595.4,286046992.1,N
1512278615.3,286046990.8,N
1512278635.1,286046988.5,N
1512278655.8,286046992.7,N
1512278675.7,286046995.4,N
1512278695.5,286046996.4,N
1512278715.3,286046991.5,N
1512278735.2,286046987.4,Y
1512278755.0,286047001.2,P
1512278755.9,286047001.2,N
1512278775.7,286046998.1,N
1512278795.6,286047000.4,N
1512278815.4,286046999.2,N
1512278835.2,286047001.1,N
1512278855.1,286046997.0,N
1512278856.0,286046997.0,N
1512278875.8,286046994.4,N
1512278895.6,286046990.0,N
1512278915.5,286046987.1,Y
1512278935.3,286046992.9,P
1512278955.1,286046990.5,P
1512278975.9,286046995.1,N
1512278995.7,286046994.1,N
1512279015.5,286046993.0,Y
1512279035.4,286047002.9,P
1512279055.2,286047002.3,N
1512279075.0,286047001.8,N
1512279075.9,286047001.8,N
1512279095.8,286046999.9,N
1512279115.6,286046995.7,N
1512279135.4,286046992.2,N
1512279155.2,286046991.7,N
1512279175.1,286046995.0,N
1512279176.0,286046995.0,N
1512279195.8,286046999.3,N
1512279215.6,286047002.8,N
1512279235.5,286047001.7,N
1512279255.3,286047000.1,N
1512279275.1,286047001.6,N
1512279295.9,286047006.8,N
1512279315.7,286047007.2,N
1512279335.5,286047007.9,N
1512279355.4,286047004.0,N
1512279375.2,286046997.8,N
1512279395.0,286046991.0,N
1512279395.9,286046991.0,N
1512279415.8,286046991.1,N
1512279435.6,286046987.6,N
1512279455.4,286046988.1,N
1512279475.3,286046982.4,Y
1512279495.1,286046982.1,P
1512279496.0,286046982.1,N
1512279515.8,286046979.4,N
1512279535.6,286046978.9,N
1512279555.5,286046981.5,N
1512279575.3,286046979.0,Y
1512279595.2,286046995.7,P
1512279615.9,286046998.3,N
1512279635.7,286046995.9,N
1512279655.5,286046994.5,N
1512279675.4,286046995.2,N
1512279695.2,286047000.8,N
1512279715.0,286046998.9,N
1512279715.9,286046998.9,N
1512279735.8,286046997.6,N
1512279755.6,286047000.7,N
1512279775.4,286047004.4,N
1512279795.3,286047004.0,N
1512279815.1,286047000.8,N
1512279816.0,286047000.8,N
1512279835.8,286046997.6,N
1512279855.7,286046996.4,N
1512279875.5,286046993.4,N
1512279895.3,286046996.2,N
1512279915.2,286046996.8,N
1512279935.9,286046998.1,N
1512279955.7,286046998.0,N
1512279975.5,286046998.2,N
1512279995.4,286046999.2,N
1512280015.2,286046999.6,N
1512280035.0,286046999.6,N
1512280035.9,286046999.6,N
1512280055.8,286046997.5,N
1512280075.6,286046996.2,N
1512280095.4,286046995.6,N
1512280115.3,286046992.8,N
1512280135.1,286046992.0,Y
1512280155.8,286046993.3,P
1512280175.7,286046993.1,N
1512280195.5,286046988.8,P
1512280215.3,286046988.1,Y
1512280235.2,286046993.7,P
1512280255.0,286046995.5,P
1512280255.9,286046995.5,P
1512280275.7,286046996.9,Y
1512280295.6,286047000.2,P
1512280315.4,286047002.8,N
1512280335.2,286047005.9,N
1512280355.1,286047003.9,N
1512280356.0,286047003.9,N
1512280375.8,286047000.0,N
1512280395.6,286047000.7,N
1512280415.5,286047005.5,N
1512280435.3,286047003.5,N
1512280455.1,286047003.2,N
1512280475.9,286047006.6,N
1512280495.7,286047006.9,N
1512280515.5,286047004.7,N
1512280535.4,286047011.3,Y
1512280555.2,286047008.2,P
1512280575.0,286047010.3,P
1512280575.9,286047010.3,P
1512280595.8,286047012.3,Y
1512280615.6,286047005.9,P
1512280635.4,286047007.1,P
1512280655.3,286047003.2,P
1512280675.1,286047003.5,N
1512280676.0,286047003.5,N
1512280695.8,286047006.9,Y
1512280715.7,286046999.1,P
1512280735.5,286046998.0,N
1512280755.3,286046999.2,N
1512280775.2,286046996.9,N
1512280795.9,286047000.5,N
